Radiation Dose at Monitoring Post of Fukushima Daini Nuclear Power Station
Date,Time,MP-1(microSv/h),MP-2(microSv/h),MP-3(microSv/h),MP-4(microSv/h),MP-5(microSv/h),MP-6(microSv/h),MP-7(microSv/h),Wind Direction,Wind Velocity(m/s),Rain
2023/04/08,00:00,0.152,0.136,0.214,0.210,0.211,0.122,0.081,west-northwest,2.5,Yes
2023/04/08,00:10,0.155,0.137,0.213,0.209,0.211,0.123,0.081,north,2.4,Yes
2023/04/08,00:20,0.152,0.136,0.214,0.209,0.212,0.122,0.079,north-northwest,3.7,Yes
2023/04/08,00:30,0.152,0.137,0.212,0.209,0.212,0.121,0.080,north-northwest,3.9,Yes
2023/04/08,00:40,0.152,0.136,0.212,0.210,0.211,0.121,0.080,north,3.5,Yes
2023/04/08,00:50,0.153,0.136,0.213,0.208,0.210,0.120,0.080,north-northwest,4.2,Yes
2023/04/08,01:00,0.152,0.137,0.212,0.210,0.212,0.120,0.079,north,3.0,Yes
2023/04/08,01:10,0.151,0.135,0.213,0.209,0.210,0.121,0.078,north-northwest,3.1,Yes
2023/04/08,01:20,0.153,0.136,0.213,0.209,0.212,0.120,0.079,north-northwest,3.5,Yes
2023/04/08,01:30,0.151,0.135,0.211,0.208,0.210,0.120,0.078,north-northwest,4.3,Yes
2023/04/08,01:40,0.151,0.136,0.213,0.207,0.210,0.121,0.078,north-northwest,5.1,Yes
2023/04/08,01:50,0.151,0.135,0.212,0.209,0.212,0.119,0.079,north-northwest,5.2,Yes
2023/04/08,02:00,0.151,0.136,0.212,0.208,0.210,0.121,0.079,north-northwest,5.0,Yes
2023/04/08,02:10,0.152,0.137,0.213,0.209,0.212,0.121,0.078,north-northwest,5.3,Yes
2023/04/08,02:20,0.152,0.137,0.212,0.209,0.211,0.120,0.079,north-northwest,6.3,Yes
2023/04/08,02:30,0.153,0.137,0.213,0.209,0.212,0.121,0.079,north-northwest,5.4,Yes
2023/04/08,02:40,0.152,0.137,0.213,0.210,0.212,0.121,0.080,north-northwest,5.9,Yes
2023/04/08,02:50,0.153,0.137,0.212,0.209,0.211,0.121,0.079,north-northwest,4.7,Yes
2023/04/08,03:00,0.153,0.136,0.212,0.208,0.212,0.121,0.079,north,3.6,Yes
2023/04/08,03:10,0.152,0.136,0.213,0.210,0.211,0.121,0.080,north,3.3,Yes
2023/04/08,03:20,0.152,0.137,0.212,0.208,0.211,0.121,0.079,north-northeast,2.2,Yes
2023/04/08,03:30,0.153,0.138,0.213,0.209,0.211,0.120,0.080,north-northeast,2.8,Yes
2023/04/08,03:40,0.152,0.137,0.212,0.209,0.211,0.121,0.079,north,2.5,Yes
2023/04/08,03:50,0.152,0.137,0.212,0.208,0.212,0.121,0.080,north-northwest,2.4,Yes
2023/04/08,04:00,0.152,0.137,0.212,0.209,0.211,0.121,0.079,north-northwest,1.9,Yes
2023/04/08,04:10,0.152,0.137,0.211,0.208,0.212,0.122,0.081,north-northwest,3.1,Yes
2023/04/08,04:20,0.153,0.138,0.213,0.209,0.211,0.123,0.081,northwest,3.3,Yes
2023/04/08,04:30,0.155,0.138,0.214,0.208,0.213,0.124,0.082,north-northwest,3.9,Yes
2023/04/08,04:40,0.155,0.138,0.213,0.211,0.214,0.124,0.084,north,4.0,Yes
2023/04/08,04:50,0.156,0.140,0.216,0.211,0.213,0.124,0.084,north,3.0,Yes
2023/04/08,05:00,0.158,0.142,0.215,0.211,0.216,0.125,0.085,north,2.5,Yes
2023/04/08,05:10,0.156,0.141,0.216,0.212,0.214,0.125,0.084,north,3.6,Yes
2023/04/08,05:20,0.156,0.141,0.216,0.212,0.214,0.125,0.083,north-northwest,2.9,Yes
2023/04/08,05:30,0.155,0.140,0.214,0.209,0.215,0.124,0.083,north-northeast,1.4,Yes
2023/04/08,05:40,0.155,0.139,0.214,0.211,0.213,0.123,0.083,north,2.7,Yes
2023/04/08,05:50,0.156,0.139,0.214,0.209,0.214,0.122,0.082,north-northeast,1.2,Yes
2023/04/08,06:00,0.153,0.139,0.215,0.210,0.213,0.123,0.081,northeast,1.1,Yes
2023/04/08,06:10,0.154,0.139,0.214,0.211,0.215,0.123,0.081,east-northeast,2.2,Yes
2023/04/08,06:20,0.156,0.144,0.215,0.212,0.214,0.124,0.082,northeast,2.6,Yes
2023/04/08,06:30,0.157,0.147,0.218,0.214,0.218,0.129,0.085,north-northeast,2.6,Yes
2023/04/08,06:40,0.158,0.148,0.220,0.214,0.217,0.130,0.088,north,2.5,Yes
2023/04/08,06:50,0.158,0.147,0.220,0.216,0.217,0.131,0.089,north,3.3,Yes
2023/04/08,07:00,0.158,0.148,0.220,0.214,0.218,0.130,0.088,north-northwest,3.3,Yes
2023/04/08,07:10,0.159,0.150,0.221,0.216,0.218,0.130,0.089,north-northwest,3.4,Yes
2023/04/08,07:20,0.165,0.151,0.223,0.217,0.219,0.132,0.091,west-northwest,3.6,Yes
2023/04/08,07:30,0.167,0.151,0.221,0.214,0.218,0.130,0.090,northwest,2.4,Yes
2023/04/08,07:40,0.166,0.148,0.221,0.214,0.217,0.128,0.088,northwest,2.2,Yes
2023/04/08,07:50,0.164,0.146,0.219,0.213,0.217,0.126,0.087,north-northwest,2.4,No
2023/04/08,08:00,0.160,0.145,0.217,0.213,0.215,0.125,0.085,north,2.9,No
2023/04/08,08:10,0.159,0.143,0.215,0.210,0.214,0.123,0.084,north-northeast,2.1,No
2023/04/08,08:20,0.157,0.140,0.213,0.208,0.212,0.122,0.082,north,2.2,Yes
2023/04/08,08:30,0.155,0.139,0.213,0.210,0.212,0.121,0.081,north-northwest,2.1,No
2023/04/08,08:40,0.154,0.138,0.211,0.206,0.212,0.120,0.080,north-northwest,4.0,No
2023/04/08,08:50,0.153,0.136,0.212,0.207,0.211,0.120,0.079,north-northwest,4.9,Yes
2023/04/08,09:00,0.153,0.137,0.212,0.207,0.210,0.119,0.079,north-northwest,4.6,Yes
2023/04/08,09:10,0.152,0.137,0.211,0.207,0.211,0.120,0.079,northwest,3.9,Yes
2023/04/08,09:20,0.152,0.137,0.212,0.208,0.213,0.120,0.079,north-northwest,2.8,Yes
2023/04/08,09:30,0.151,0.137,0.212,0.207,0.212,0.120,0.079,north,1.6,Yes
2023/04/08,09:40,0.150,0.136,0.211,0.207,0.212,0.120,0.079,north-northwest,1.5,Yes
2023/04/08,09:50,0.151,0.135,0.212,0.208,0.210,0.119,0.078,north,1.7,Yes
2023/04/08,10:00,0.151,0.137,0.210,0.207,0.211,0.118,0.078,north-northeast,1.7,Yes
2023/04/08,10:10,0.151,0.136,0.211,0.207,0.211,0.119,0.078,north-northeast,2.4,Yes
2023/04/08,10:20,0.150,0.135,0.210,0.206,0.210,0.119,0.077,northeast,2.7,No
2023/04/08,10:30,0.149,0.135,0.211,0.206,0.211,0.118,0.078,north-northeast,3.0,No
2023/04/08,10:40,0.149,0.133,0.209,0.205,0.209,0.119,0.077,north-northeast,2.7,No
2023/04/08,10:50,0.150,0.134,0.208,0.205,0.210,0.118,0.078,northeast,3.2,No
2023/04/08,11:00,0.149,0.133,0.209,0.205,0.209,0.117,0.076,northeast,2.5,No
2023/04/08,11:10,0.150,0.134,0.208,0.204,0.209,0.117,0.077,north-northeast,2.1,No
2023/04/08,11:20,0.148,0.131,0.209,0.204,0.209,0.118,0.077,northeast,2.0,No
2023/04/08,11:30,0.148,0.133,0.207,0.205,0.209,0.117,0.076,northeast,2.0,Yes
2023/04/08,11:40,0.149,0.134,0.209,0.205,0.209,0.117,0.076,northeast,2.5,Yes
2023/04/08,11:50,0.148,0.133,0.209,0.206,0.210,0.118,0.076,north,0.8,No
2023/04/08,12:00,0.149,0.133,0.209,0.204,0.209,0.118,0.076,northeast,1.4,Yes
2023/04/08,12:10,0.148,0.133,0.208,0.205,0.209,0.116,0.076,east-northeast,1.5,Yes
2023/04/08,12:20,0.149,0.134,0.209,0.205,0.209,0.118,0.076,east-northeast,2.0,No
2023/04/08,12:30,0.149,0.133,0.208,0.205,0.210,0.117,0.076,northeast,1.0,Yes
2023/04/08,12:40,0.148,0.133,0.209,0.205,0.209,0.117,0.076,east-northeast,1.1,No
2023/04/08,12:50,0.147,0.133,0.209,0.205,0.209,0.117,0.076,east-northeast,1.2,No
2023/04/08,13:00,0.149,0.133,0.208,0.204,0.209,0.118,0.077,north,0.8,Yes
2023/04/08,13:10,0.148,0.133,0.210,0.205,0.209,0.117,0.075,northeast,1.1,Yes
2023/04/08,13:20,0.149,0.133,0.209,0.206,0.209,0.117,0.076,east,0.9,Yes
2023/04/08,13:30,0.149,0.134,0.209,0.205,0.210,0.118,0.077,-,CALM,Yes
2023/04/08,13:40,0.150,0.135,0.211,0.207,0.211,0.120,0.080,northeast,8.1,Yes
2023/04/08,13:50,0.152,0.137,0.212,0.208,0.213,0.122,0.082,south-southwest,1.5,Yes
2023/04/08,14:00,0.153,0.138,0.213,0.210,0.212,0.124,0.083,south,1.1,Yes
2023/04/08,14:10,0.154,0.138,0.214,0.210,0.214,0.124,0.083,south-southeast,2.2,Yes
2023/04/08,14:20,0.153,0.138,0.214,0.209,0.214,0.123,0.083,south-southeast,2.4,Yes
2023/04/08,14:30,0.154,0.138,0.213,0.210,0.213,0.123,0.081,south-southeast,2.2,Yes
2023/04/08,14:40,0.152,0.137,0.212,0.208,0.212,0.122,0.081,south,1.9,No
2023/04/08,14:50,0.152,0.137,0.211,0.208,0.212,0.121,0.080,south,1.0,Yes
2023/04/08,15:00,0.151,0.134,0.211,0.207,0.212,0.120,0.079,south-southeast,1.1,Yes
2023/04/08,15:10,0.150,0.136,0.209,0.206,0.211,0.120,0.079,east-southeast,1.5,Yes
2023/04/08,15:20,0.150,0.135,0.210,0.207,0.211,0.119,0.078,west,2.1,No
2023/04/08,15:30,0.149,0.134,0.209,0.204,0.209,0.119,0.078,west-northwest,8.1,Yes
2023/04/08,15:40,0.150,0.135,0.209,0.207,0.210,0.119,0.078,west-northwest,10.1,Yes
2023/04/08,15:50,0.150,0.135,0.209,0.206,0.212,0.119,0.078,northwest,7.0,Yes
2023/04/08,16:00,0.150,0.135,0.209,0.205,0.210,0.120,0.078,northwest,6.4,Yes
2023/04/08,16:10,0.150,0.135,0.210,0.207,0.211,0.120,0.078,northwest,6.0,Yes
2023/04/08,16:20,0.149,0.135,0.210,0.206,0.210,0.120,0.078,northwest,6.3,Yes
2023/04/08,16:30,0.150,0.135,0.209,0.206,0.211,0.119,0.077,northwest,5.7,Yes
2023/04/08,16:40,0.150,0.135,0.210,0.206,0.210,0.119,0.076,northwest,5.2,No
2023/04/08,16:50,0.149,0.135,0.209,0.206,0.209,0.119,0.076,northwest,4.5,No
2023/04/08,17:00,0.150,0.133,0.209,0.205,0.210,0.119,0.076,northwest,5.7,No
2023/04/08,17:10,0.149,0.134,0.209,0.206,0.209,0.119,0.076,northwest,5.8,Yes
2023/04/08,17:20,0.150,0.134,0.209,0.205,0.209,0.118,0.076,west-northwest,7.8,Yes
2023/04/08,17:30,0.148,0.134,0.209,0.205,0.209,0.118,0.076,west-northwest,9.6,Yes
2023/04/08,17:40,0.147,0.134,0.209,0.206,0.209,0.118,0.076,northwest,9.2,No
2023/04/08,17:50,0.149,0.134,0.209,0.204,0.210,0.119,0.076,west-northwest,9.5,No
2023/04/08,18:00,0.148,0.132,0.209,0.204,0.208,0.118,0.076,northwest,9.6,Yes
2023/04/08,18:10,0.147,0.133,0.209,0.206,0.208,0.118,0.076,northwest,9.2,No
2023/04/08,18:20,0.149,0.132,0.209,0.204,0.210,0.118,0.076,northwest,14.5,No
2023/04/08,18:30,0.149,0.134,0.208,0.204,0.209,0.118,0.076,northwest,10.9,No
2023/04/08,18:40,0.148,0.133,0.209,0.206,0.208,0.118,0.076,northwest,10.6,No
2023/04/08,18:50,0.149,0.134,0.209,0.206,0.209,0.117,0.076,northwest,7.3,No
2023/04/08,19:00,0.148,0.133,0.208,0.205,0.210,0.117,0.075,northwest,7.9,No
2023/04/08,19:10,0.149,0.132,0.209,0.205,0.208,0.119,0.075,northwest,9.8,No
2023/04/08,19:20,0.148,0.132,0.209,0.206,0.209,0.118,0.076,northwest,6.8,No
2023/04/08,19:30,0.149,0.132,0.208,0.205,0.208,0.118,0.076,west-northwest,7.1,No
2023/04/08,19:40,0.149,0.132,0.208,0.206,0.208,0.117,0.076,west-northwest,8.3,No
2023/04/08,19:50,0.149,0.134,0.208,0.206,0.210,0.118,0.076,west-northwest,7.1,No
2023/04/08,20:00,0.149,0.133,0.208,0.205,0.209,0.117,0.075,west-northwest,7.9,No
2023/04/08,20:10,0.149,0.133,0.209,0.205,0.208,0.118,0.076,west-northwest,8.9,No
2023/04/08,20:20,0.148,0.133,0.209,0.205,0.209,0.117,0.075,west-northwest,9.2,No
2023/04/08,20:30,0.149,0.133,0.209,0.206,0.208,0.117,0.075,west-northwest,10.6,No
2023/04/08,20:40,0.150,0.132,0.209,0.205,0.208,0.117,0.075,west-northwest,9.5,No
2023/04/08,20:50,0.149,0.133,0.210,0.206,0.209,0.117,0.075,west-northwest,8.8,No
2023/04/08,21:00,0.150,0.134,0.208,0.206,0.208,0.117,0.075,west-northwest,8.2,No
2023/04/08,21:10,0.149,0.133,0.209,0.206,0.209,0.118,0.075,west-northwest,9.3,No
2023/04/08,21:20,0.150,0.133,0.209,0.206,0.208,0.119,0.075,west-northwest,9.8,No
2023/04/08,21:30,0.149,0.134,0.208,0.205,0.208,0.118,0.075,west-northwest,9.0,No
2023/04/08,21:40,0.149,0.134,0.209,0.206,0.208,0.117,0.075,west-northwest,7.6,No
2023/04/08,21:50,0.149,0.133,0.209,0.205,0.208,0.118,0.075,west-northwest,8.1,No
2023/04/08,22:00,0.149,0.133,0.210,0.206,0.209,0.117,0.076,west-northwest,7.2,No
2023/04/08,22:10,0.150,0.134,0.209,0.205,0.209,0.118,0.075,west-northwest,6.9,No
2023/04/08,22:20,0.149,0.133,0.208,0.206,0.209,0.117,0.076,west-northwest,6.7,No
2023/04/08,22:30,0.149,0.133,0.208,0.206,0.209,0.119,0.076,west-northwest,6.1,No
2023/04/08,22:40,0.150,0.134,0.208,0.207,0.208,0.118,0.075,west,5.8,No
2023/04/08,22:50,0.149,0.133,0.210,0.206,0.208,0.119,0.076,west,6.0,No
2023/04/08,23:00,0.149,0.133,0.208,0.205,0.209,0.118,0.076,west,6.6,No
2023/04/08,23:10,0.149,0.133,0.209,0.206,0.208,0.118,0.075,west,8.4,No
2023/04/08,23:20,0.149,0.133,0.208,0.205,0.208,0.118,0.076,west-northwest,6.3,No
2023/04/08,23:30,0.149,0.133,0.209,0.205,0.209,0.118,0.076,west-northwest,6.2,No
2023/04/08,23:40,0.149,0.133,0.208,0.205,0.208,0.118,0.076,west-northwest,4.7,No
2023/04/08,23:50,0.150,0.134,0.208,0.206,0.208,0.118,0.075,west-northwest,4.1,No
